"Pseudo-MPEC" for A11tUfy

Created 2025 Oct 18 0:35:03 UT using Find_Orb

Click here for an explanation of pseudo-MPECs

 
 Astrometry: 
     A11tUfy*0C2025 10 15KE*-Xqh)M=!:ys#$\D=FSG,eiRV1Z(OYf\l^$ueuP%O$\S`'J`4qM22
     A11tUfy 0C2025 10 16FP65]FFq(OPoeBSiqrQm4FfopL)AL41aqXaB`6L/Uox@4Bf00ho[M22
     A11tUfy 0C2025 10 16nx@fh[7BY:2,JAUf?u!\rAlAstrometrytA=67redacted;ehn`UM22
     A11tUfy 0C2025 10 16\ul\P*2LgAkv'h=M=^PclickZNAyp59Kq5r--R^7d8=here+Yc!UM22
     A11tUfy 0C2025 10 16jjr-0HA^itU%4ZPI,8V^vGhe-(/forWrS*j::8[S\U.;iBklO)HgM22
     A11tUfy 0C2025 10 16YJj5Q$=:5im?Z-4LBg.RuIuqohRjhf:2hOcFFXexplanation[6KM22

Station data:
(M22) ATLAS South Africa, Sutherland  (S32.380156 E20.810590)  South Africa.
   Observers L. Denneau, R. Siverd, J. Tonry, H. Weiland. Measurers L.
   Denneau, N. Erasmus, A. Fitzsimmons, J. Robinson, R. Siverd, J. Tonry, H.
   Weiland. 0.5-m f/2.0 Schmidt + CCD.

Orbital elements:  A11tUfy
   Perigee 2025 Oct 16.306108 +/- 0.000255 TT =  7:20:47.7 (JD 2460964.806108)
Epoch 2025 Oct 16.0 TT = JDT 2460964.5                           AutoNEOCP
M 245.342645057 +/- 0.22            (J2000 equator)
n 374.564727967 +/- 0.666           Peri.  108.713555 +/- 0.17
a 41138.86011 +/- 48.8              Node   101.740236 +/- 0.13
e   0.72897819 +/- 0.000295         Incl.    2.294577 +/- 0.0042
P1383.980m/0.961d          H 32.48  G  0.15   U 12.5
q 11149.52818 +/- 19.2    Q 71128.19204 +/- 83.5
From 6 observations 2025 Oct. 15-16 (2.7 hr); mean residual 0".91
Residuals in arcseconds: 
251015 M22  .65-  .18-    251016 M22  2.3+  .22+    251016 M22  .87+  .08+    
251016 M22  1.3-  .00     251016 M22  1.3-  .14-    251016 M22  .17+  .03+    

Ephemerides (geocentric):
Date (UTC) HH   RA             Dec           delta  r     elong  mag " sig PA
---- --------  ------------   ------------  ------ ------ -----  --- --------
2025 10 18 01  04 08 10.820   -01 27 52.32   50982 0.9967 139.3 16.7 1785  88
2025 10 18 02  04 40 10.292   -01 12 14.09   44095 0.9966 131.7 16.6 2372  88
2025 10 18 03  05 25 44.423   -00 47 36.76   35702 0.9965 120.7 16.5 3599  88
2025 10 18 04  06 44 20.755   -00 01 19.28   25454 0.9964 101.6 16.4 7089  88
2025 10 18 05  10 10 13.949   +01 46 56.85   13888 0.9963  51.4 17?? 402'  89
2025 10 18 06  18 19 44.667   +00 15 43.75   14625 0.9963  72.3 16.5 334'  92
2025 10 18 07  21 28 10.565   -01 29 39.59   26243 0.9964 118.3 15.9 6589  92
2025 10 18 08  22 43 09.113   -01 58 34.02   36353 0.9965 136.4 16.1 3631  91
2025 10 18 09  23 27 25.752   -02 09 52.74   44629 0.9966 146.8 16.2 2537  91
2025 10 18 10  23 58 48.219   -02 14 59.40   51421 0.9966 153.8 16.3 2004  91
2025 10 18 11  00 23 24.370   -02 17 14.17   56985 0.9967 159.0 16.4 1705  91
2025 10 18 12  00 43 59.694   -02 17 54.21   61490 0.9967 163.0 16.4 1525  91
2025 10 18 13  01 02 02.243   -02 17 34.48   65054 0.9967 165.8 16.5 1412  90
2025 10 18 14  01 18 24.908   -02 16 32.31   67757 0.9967 167.5 16.5 1344  90
2025 10 18 15  01 33 42.814   -02 14 56.46   69653 0.9967 168.0 16.5 1308  90
2025 10 18 16  01 48 21.590   -02 12 50.89   70777 0.9967 167.5 16.6 1298  90
2025 10 18 17  02 02 41.857   -02 10 16.43   71149 0.9967 166.0 16.7 1311  90
2025 10 18 18  02 17 02.049   -02 07 11.38   70777 0.9967 163.9 16.7 1348  89
2025 10 18 19  02 31 40.598   -02 03 31.54   69652 0.9967 161.3 16.8 1411  89
2025 10 18 20  02 46 58.111   -01 59 09.64   67756 0.9966 158.3 16.8 1506  89
2025 10 18 21  03 03 20.193   -01 53 54.05   65053 0.9966 154.9 16.8 1645  89
2025 10 18 22  03 21 21.925   -01 47 26.14   61489 0.9965 150.9 16.8 1849  89
2025 10 18 23  03 41 56.133   -01 39 14.94   56983 0.9965 146.2 16.8 2156  88
2025 10 19 00  04 06 30.756   -01 28 25.50   51419 0.9964 140.5 16.7 2647  88
2025 10 19 01  04 37 51.098   -01 13 09.94   44626 0.9964 133.1 16.6 3511  88
2025 10 19 02  05 22 04.737   -00 49 22.57   36348 0.9963 122.5 16.5 5299  88
2025 10 19 03  06 36 59.495   -00 05 23.89   26236 0.9962 104.3 16.3 171'  88
2025 10 19 04  09 45 32.556   +01 37 18.30   14615 0.9961  58.3 17?? 568'  88
2025 10 19 05  17 55 24.166   +00 29 50.25   13892 0.9961  65.5 16.8 545'  92
2025 10 19 06  21 21 03.968   -01 26 41.16   25465 0.9962 115.7 15.9 171'  92
2025 10 19 07  22 39 39.985   -01 57 43.74   35715 0.9963 134.6 16.1 5480  91
2025 10 19 08  23 25 14.712   -02 09 37.27   44109 0.9963 145.3 16.3 3740  91
2025 10 19 09  23 57 14.658   -02 14 56.38   50995 0.9964 152.5 16.4 2901  91
2025 10 19 10  00 22 11.818   -02 17 16.16   56638 0.9964 157.9 16.4 2430  91
2025 10 19 11  00 42 59.999   -02 17 58.22   61213 0.9964 161.9 16.5 2144  90
2025 10 19 12  01 01 10.772   -02 17 39.16   64840 0.9964 164.9 16.5 1963  90
2025 10 19 13  01 17 38.733   -02 16 37.05   67601 0.9965 166.8 16.5 1850  90
2025 10 19 14  01 32 59.893   -02 15 00.98   69552 0.9965 167.6 16.6 1786  90
2025 10 19 15  01 47 40.360   -02 12 55.14   70729 0.9965 167.4 16.6 1759  90
2025 10 19 16  02 02 00.988   -02 10 20.48   71153 0.9964 166.2 16.7 1766  90
2025 10 19 17  02 16 20.283   -02 07 15.44   70833 0.9964 164.4 16.7 1806  89
2025 10 19 18  02 30 56.599   -02 03 35.96   69761 0.9964 161.9 16.8 1882  89
2025 10 19 19  02 46 10.302   -01 59 15.00   67920 0.9964 159.0 16.8 2003  89
2025 10 19 20  03 02 26.515   -01 54 01.24   65275 0.9963 155.7 16.8 2182  89
2025 10 19 21  03 20 19.435   -01 47 36.61   61773 0.9963 151.8 16.8 2446  89
2025 10 19 22  03 40 40.210   -01 39 31.25   57336 0.9962 147.3 16.8 2847  88
2025 10 19 23  04 04 53.351   -01 28 52.41   51851 0.9962 141.7 16.7 3487  88
2025 10 20 00  04 35 36.192   -01 13 57.55   45151 0.9961 134.4 16.6 4609  88